sat.trackr.live / text

‹ back to catalog

SKYTERRA 1

NORAD 37218 · 2010-061A

PAYLOAD ACTIVE UNKNOWN

§ Identity

Operator
Country
US
Launch date
2010-11-14
Launch site
TYMSC
Launch vehicle
Mass (kg)
RCS (m²)
0.00

Purposes: comms

External: N2YO · Heavens-Above · Gunter

§ Orbital elements

Epoch: 2026-09-10T04:49:38.356896Z

Period
1,436.10 min
Inclination
5.3037°
Eccentricity
0.0000765
Mean motion
1.00271655 rev/d
Perigee alt
35,783.4 km
Apogee alt
35,789.9 km
Semi-major
42,164.8 km
B*
0.0000e+0
RAAN
50.6561°
Arg perigee
129.6969°
Mean anomaly
140.0161°
Rev number
5,804

§ Raw data

SKYTERRA 11 37218U 10061A   26253.20113839 -.00000135  00000+0  00000+0 0  99922 37218   5.3037  50.6561 0000765 129.6969 140.0161  1.00271655 58041

JSON: /api/v1/satellites/37218 · /tle

For live sub-satellite position, see the globe view (requires WebGL).

§ Visibility from observer

Set your observer location to see the next 7 days of passes ≥ 10°. The values pass through the URL so the page stays shareable.

No JS? Fill the form by hand. The geolocation button needs JavaScript.